Home > Time Zones > World Clock > Weather > China > Hefei > Past weeks

Flag for China Weather past 2 weeks in Hefei, Anhui, China

Now
36 °F

Clear.


Feels Like: 31 °F
Forecast: 32 / 45 °F
Wind: 6 mph from Northeast

Location: Hefei Airport

Current Time: Dec 25, 2014 at 11:15:07 PM

Latest Report: Dec 25, 2014 at 10:00 PM


Visibility: 10 mi

Pressure: 30.48 "Hg

Humidity: 65%

Dew point: 25 °F

Location of HefeiLocation

Historic Weather in Hefei — Graph

°F

Hefei temperature yesterday

Maximum temperature yesterday: 55 °F (at 3:00 PM)
Minimum temperature yesterday: 30 °F (at 6:00 AM)
Average temperature yesterday: 41 °F

Past Weeks' High & Low Weather Summary

 TemperatureHumidityPressure
High55 °F (Dec 19, 2:00 PM)93% (Dec 11, 12:00 AM)30.66 "Hg (Dec 11, 12:00 AM)
Low23 °F (Dec 22, 7:00 AM)17% (Dec 17, 2:00 PM)30.15 "Hg (Dec 23, 1:00 PM)
Average39 °F54%30.41 "Hg
* Reported Dec 10 10:00 PM — Dec 25 10:00 PM, Hefei, Weather by CustomWeather, © 2014

Note: Actual official high and low records may vary slightly from our data, if they occured in-between our weather recording intervals... More about our weather records

Advertising

Hefei weather history for previous 24 hours

 ConditionsComfort  
Time TempWeatherWind HumidityBarometerVisibility
10:00 PM
Dec 25
36 °FClear.6 mph65%30.48 "Hg10 mi
9:00 PM37 °FClear.6 mph65%30.48 "Hg4 mi
8:00 PM37 °FHaze.3 mph75%30.45 "Hg3 mi
7:00 PM39 °FHaze.1 mph70%30.45 "Hg3 mi
6:00 PM39 °FClear.3 mph70%30.42 "Hg4 mi
5:00 PM41 °FClear.3 mph66%30.42 "Hg4 mi
4:00 PM41 °FSunny.3 mph61%30.42 "Hg10 mi
3:00 PM41 °FSunny.8 mph66%30.42 "Hg10 mi
2:00 PM43 °FSunny.8 mph61%30.42 "Hg10 mi
1:00 PM43 °FSunny.8 mph61%30.42 "Hg10 mi
12:00 PM43 °FClear.6 mph61%30.45 "Hg5 mi
11:00 AM41 °FClear.8 mph61%30.48 "Hg4 mi
10:00 AM39 °FHaze.8 mph70%30.51 "Hg2 mi
9:00 AM36 °FFog.8 mph81%30.51 "Hg2 mi
8:00 AM32 °FIce fog.6 mph87%30.48 "Hg2 mi
7:00 AM30 °FIce fog.6 mph93%30.48 "Hg1 mi
6:00 AM30 °FIce fog.6 mph93%30.45 "Hg1 mi
5:00 AM32 °FIce fog.6 mph87%30.45 "Hg1 mi
4:00 AM32 °FIce fog.6 mph87%30.45 "Hg1 mi
3:00 AM34 °FFog.6 mph75%30.45 "Hg1 mi
2:00 AM34 °FFog.6 mph75%30.45 "Hg1 mi
1:00 AM36 °FHaze.3 mph70%30.45 "Hg1 mi
12:00 AM36 °FHaze.3 mph75%30.42 "Hg2 mi
11:00 PM
Dec 24
37 °FHaze.3 mph70%30.45 "Hg2 mi
Weather by CustomWeather, © 2014

See weather overviewHow to use our weather pages